[[{"header":{"parameterUnit":"m.s-1","parameterCategory":2,"la1":30.2992,"la2":30.254,"lo1":-89.0895,"lo2":-89.0443,"dy":0.0025,"dx":0.0025,"nx":19,"ny":19,"refTime":"2026-05-06T09:00:00:Z","depth":"0","parameterNumber":2,"parameterNumberName":"U-component_of_CURRENTS"},"data":[0,0,0,0.2923,0.2925,0.2956,0.2955,0.2838,0.2837,0,0,0,0,0,0,0,0,0,0,0,0.2886,0.2887,0.2923,0.2925,0.2956,0.2955,0.2838,0.2837,0,0,0,0,0,0,0,0,0,0,0,0.2886,0.2887,0.2887,0.2925,0.2956,0.2955,0.2839,0.2847,0,0,0,0,0,0,0,0,0,0,0.2833,0.2832,0.2887,0.2887,0.2926,0.2956,0.2955,0.2849,0.2846,0.2789,0,0.2801,0,0.2838,0.2828,0.2828,0,0,0,0.2894,0.2835,0.2854,0.2887,0.2926,0.2956,0.2933,0.2848,0.2845,0.2785,0.28,0.2797,0.2836,0.2828,0.2827,0.278,0.2781,0,0,0.2892,0.2876,0.2856,0.2852,0.294,0.2932,0.2935,0.2848,0.2837,0.2799,0.2796,0.2834,0.2827,0.2826,0.278,0.278,0,0,0,0.2908,0.2874,0.2898,0.2855,0.2886,0.2934,0.2936,0.284,0.2851,0.2795,0.2832,0.2826,0.2824,0.2779,0.278,0.2811,0,0,0,0.2906,0.2887,0.2897,0.2885,0.2889,0.2887,0.293,0.2856,0.285,0.2833,0.2826,0.2823,0.2779,0.278,0.2809,0.2788,0,0,0,0.2884,0.2885,0.2893,0.2884,0.2917,0.289,0.2895,0.2856,0.2873,0.2828,0.2823,0.2778,0.278,0.2808,0.2786,0.2791,0,0,0,0.2858,0.2857,0.2892,0.2893,0.2917,0.2934,0.2897,0.2883,0.2847,0.2825,0.2779,0.278,0.2807,0.2785,0.279,0.2794,0.2798,0,0,0.2841,0.2854,0.2855,0.2889,0.2905,0.2927,0.293,0.2867,0.2845,0.2789,0.2789,0.281,0.2786,0.279,0.2856,0.2858,0,0,0,0.2839,0.2841,0.285,0.287,0.2897,0.2909,0.2895,0.2889,0.2859,0.2839,0.2823,0.2806,0.2808,0.281,0.2813,0.2721,0.2785,0.2785,0.2785,0.2799,0.2819,0.2814,0.2841,0.2857,0.289,0.2893,0.2885,0.2867,0.2875,0.2843,0.2878,0.2883,0.2884,0.2791,0.2875,0.2875,0.2875,0.2875,0.2764,0.2737,0.2782,0.2781,0.2814,0.2822,0.2865,0.2877,0.2886,0.2878,0.288,0.2857,0.2889,0.2788,0.2878,0.2877,0.2877,0.2877,0.2877,0.2721,0.2693,0.2713,0.2705,0.2723,0.2773,0.279,0.2839,0.288,0.2897,0.2894,0.2893,0.2791,0.2908,0.2908,0.2908,0.2908,0.2908,0.2908,0.2621,0.2635,0.2615,0.2628,0.2626,0.2658,0.2737,0.2779,0.2861,0.2902,0.2903,0.2795,0.2887,0.287,0.2907,0.2907,0.2907,0.2907,0.2907,0.2499,0.2516,0.2479,0.248,0.2491,0.2489,0.2618,0.2733,0.28,0.2843,0.2801,0.291,0.289,0.2888,0.2871,0.2905,0.2905,0.2905,0.2905,0.2394,0.2414,0.2345,0.234,0.2346,0.2406,0.2424,0.2548,0.2688,0.2719,0.2748,0.2742,0.2746,0.2715,0.2717,0.2697,0.2685,0.2685,0.2684,0.2296,0.2297,0.2239,0.2263,0.2272,0.2304,0.2264,0.2295,0.2532,0.2664,0.2617,0.2627,0.2606,0.262,0.2564,0.2575,0.2539,0,0]},{"header":{"parameterUnit":"m.s-1","parameterCategory":2,"la1":30.2992,"la2":30.254,"lo1":-89.0895,"lo2":-89.0443,"dy":0.0025,"dx":0.0025,"nx":19,"ny":19,"refTime":"2026-05-06T09:00:00:Z","depth":"0","parameterNumber":3,"parameterNumberName":"V-component_of_CURRENTS"},"data":[0,0,0,-0.1571,-0.1574,-0.1668,-0.1668,-0.1695,-0.1696,0,0,0,0,0,0,0,0,0,0,0,-0.1527,-0.1528,-0.1571,-0.1574,-0.1668,-0.1668,-0.1695,-0.1696,0,0,0,0,0,0,0,0,0,0,0,-0.1527,-0.1528,-0.1529,-0.1575,-0.1668,-0.1668,-0.1695,-0.1644,0,0,0,0,0,0,0,0,0,0,-0.1562,-0.1503,-0.1528,-0.1529,-0.1575,-0.1668,-0.1668,-0.1642,-0.1647,-0.1631,0,-0.1653,0,-0.1685,-0.1697,-0.1697,0,0,0,-0.1559,-0.1499,-0.1568,-0.1529,-0.1576,-0.1668,-0.1621,-0.1645,-0.1651,-0.1637,-0.1654,-0.1656,-0.1686,-0.1697,-0.1697,-0.1606,-0.1605,0,0,-0.1554,-0.1499,-0.1564,-0.1571,-0.1609,-0.1619,-0.1625,-0.165,-0.163,-0.1654,-0.1658,-0.1686,-0.1697,-0.1697,-0.1607,-0.1605,0,0,0,-0.1549,-0.1495,-0.1564,-0.1569,-0.16,-0.1622,-0.1629,-0.1628,-0.1665,-0.1658,-0.1687,-0.1697,-0.1697,-0.1608,-0.1606,-0.1519,0,0,0,-0.1545,-0.1495,-0.1562,-0.1524,-0.16,-0.1619,-0.1606,-0.1662,-0.1667,-0.1687,-0.1697,-0.1697,-0.1609,-0.1607,-0.1524,-0.1458,0,0,0,-0.1522,-0.1491,-0.1516,-0.1522,-0.1577,-0.1621,-0.1656,-0.1664,-0.1685,-0.1697,-0.1697,-0.161,-0.1607,-0.1529,-0.1467,-0.1387,0,0,0,-0.1445,-0.1472,-0.1513,-0.1533,-0.1576,-0.1611,-0.1656,-0.167,-0.1677,-0.1697,-0.1609,-0.1606,-0.153,-0.1472,-0.1393,-0.1221,-0.1182,0,0,-0.1445,-0.1469,-0.1484,-0.1526,-0.154,-0.1596,-0.1554,-0.1592,-0.1623,-0.1595,-0.1594,-0.1523,-0.1467,-0.1388,-0.1067,-0.1033,0,0,0,-0.1462,-0.1465,-0.1476,-0.1491,-0.1533,-0.1483,-0.1538,-0.1537,-0.151,-0.162,-0.1493,-0.1459,-0.1413,-0.132,-0.1292,-0.1202,-0.1594,-0.1594,-0.1595,-0.1319,-0.1382,-0.137,-0.1415,-0.1412,-0.141,-0.1378,-0.1372,-0.1438,-0.1393,-0.1367,-0.1214,-0.1113,-0.109,-0.0999,-0.1358,-0.1358,-0.1358,-0.1357,-0.1247,-0.1222,-0.1266,-0.1282,-0.1252,-0.1212,-0.1193,-0.1218,-0.1161,-0.1234,-0.1195,-0.1206,-0.1054,-0.0968,-0.1351,-0.1352,-0.1353,-0.1354,-0.1354,-0.1099,-0.11,-0.1128,-0.1116,-0.1067,-0.1071,-0.098,-0.1014,-0.1047,-0.1013,-0.0918,-0.0918,-0.0861,-0.0999,-0.0999,-0.0998,-0.0997,-0.0997,-0.0997,-0.0913,-0.0954,-0.0911,-0.0936,-0.0915,-0.0871,-0.0845,-0.0803,-0.075,-0.0771,-0.077,-0.076,-0.1105,-0.114,-0.0986,-0.0988,-0.0989,-0.099,-0.0991,-0.0755,-0.0739,-0.0697,-0.0678,-0.0661,-0.0553,-0.0577,-0.0425,-0.0413,-0.0338,-0.0371,-0.0645,-0.065,-0.0671,-0.0695,-0.0435,-0.0435,-0.0435,-0.0435,-0.059,-0.0599,-0.0504,-0.0468,-0.0419,-0.0401,-0.0114,-0.0001,0.0012,0.0026,-0.0093,-0.0132,-0.0159,-0.0141,-0.0175,-0.0191,0.019,0.0191,0.0192,-0.0464,-0.046,-0.037,-0.0365,-0.033,-0.0199,0.013,0.0436,0.0398,0.0217,0.0005,-0.0021,-0.0091,-0.0141,-0.0135,-0.0189,-0.0227,0,0]}],[{"header":{"parameterUnit":"m.s-1","parameterCategory":2,"la1":30.2992,"la2":30.254,"lo1":-89.0895,"lo2":-89.0443,"dy":0.0025,"dx":0.0025,"nx":19,"ny":19,"refTime":"2026-05-06T09:00:00:Z","depth":"2","parameterNumber":2,"parameterNumberName":"U-component_of_CURRENTS"},"data":[0,0,0,0.267,0.2673,0.2847,0.2848,0.3115,0.3117,0,0,0,0,0,0,0,0,0,0,0,0.2617,0.2617,0.267,0.2673,0.2847,0.2848,0.3115,0.3117,0,0,0,0,0,0,0,0,0,0,0,0.2616,0.2617,0.2618,0.2673,0.2846,0.2848,0.3114,0.2979,0,0,0,0,0,0,0,0,0,0,0.2808,0.2784,0.2617,0.2618,0.2674,0.2846,0.2848,0.2973,0.2988,0.3039,0,0.3052,0,0.3076,0.3133,0.3134,0,0,0,0.2704,0.2772,0.2768,0.2618,0.2675,0.2846,0.2777,0.2981,0.2998,0.3059,0.3056,0.3065,0.308,0.3135,0.3136,0.3327,0.3328,0,0,0.2695,0.2705,0.2756,0.2778,0.2704,0.2771,0.2782,0.2991,0.3033,0.3057,0.3071,0.3085,0.3136,0.3138,0.3327,0.3327,0,0,0,0.2646,0.2699,0.2692,0.2767,0.2787,0.2776,0.2788,0.3025,0.3007,0.3074,0.3088,0.3138,0.3141,0.3327,0.3327,0.3344,0,0,0,0.2642,0.2667,0.2687,0.2703,0.2782,0.2913,0.2818,0.2993,0.3017,0.3086,0.3138,0.3143,0.3326,0.3327,0.3343,0.3284,0,0,0,0.2611,0.2666,0.2668,0.2702,0.2756,0.2909,0.2908,0.2999,0.3024,0.3134,0.3144,0.3326,0.3327,0.3342,0.3284,0.3262,0,0,0,0.2641,0.2668,0.2669,0.2735,0.2753,0.2855,0.2907,0.3032,0.3128,0.3139,0.3326,0.3327,0.3342,0.3285,0.3262,0.3004,0.2981,0,0,0.2681,0.2675,0.2713,0.2715,0.2786,0.2834,0.298,0.3124,0.3152,0.3266,0.3271,0.3343,0.3284,0.3262,0.3047,0.3021,0,0,0,0.273,0.2752,0.2772,0.2833,0.2884,0.2957,0.3107,0.3145,0.3252,0.3204,0.3354,0.3314,0.33,0.3147,0.3128,0.3331,0.3331,0.333,0.333,0.2746,0.2792,0.2855,0.2916,0.2984,0.3094,0.3153,0.3234,0.3301,0.3331,0.3339,0.3337,0.3178,0.3159,0.3386,0.3386,0.3386,0.3386,0.3387,0.2767,0.279,0.2891,0.2958,0.3025,0.3138,0.3239,0.3282,0.333,0.3357,0.3345,0.3184,0.3138,0.3388,0.3388,0.3388,0.3387,0.3387,0.3387,0.2718,0.2738,0.2804,0.2898,0.3001,0.3119,0.3141,0.322,0.3295,0.3294,0.3117,0.3114,0.3303,0.3304,0.3303,0.3303,0.3303,0.3303,0.3302,0.2604,0.268,0.269,0.2816,0.2859,0.2936,0.305,0.3051,0.303,0.3057,0.3055,0.3308,0.331,0.3297,0.3297,0.3298,0.3299,0.3299,0.33,0.2551,0.2509,0.2524,0.2551,0.2653,0.2559,0.2731,0.2659,0.273,0.2655,0.2923,0.2933,0.2883,0.2895,0.2871,0.2761,0.2761,0.2761,0.2761,0.244,0.2443,0.2377,0.2366,0.2357,0.2387,0.213,0.2079,0.2227,0.2234,0.2257,0.2222,0.2255,0.2169,0.2199,0.2161,0.1866,0.1864,0.1863,0.2386,0.2354,0.2278,0.225,0.2221,0.21,0.172,0.1466,0.1521,0.1829,0.2117,0.2698,0.271,0.2737,0.2661,0.2687,0.2648,0,0]},{"header":{"parameterUnit":"m.s-1","parameterCategory":2,"la1":30.2992,"la2":30.254,"lo1":-89.0895,"lo2":-89.0443,"dy":0.0025,"dx":0.0025,"nx":19,"ny":19,"refTime":"2026-05-06T09:00:00:Z","depth":"2","parameterNumber":3,"parameterNumberName":"V-component_of_CURRENTS"},"data":[0,0,0,0.0586,0.0585,0.052,0.0519,0.0428,0.0427,0,0,0,0,0,0,0,0,0,0,0,0.0606,0.0605,0.0586,0.0585,0.052,0.0519,0.0428,0.0427,0,0,0,0,0,0,0,0,0,0,0,0.0606,0.0605,0.0605,0.0585,0.052,0.0519,0.0428,0.0476,0,0,0,0,0,0,0,0,0,0,0.054,0.0539,0.0605,0.0605,0.0584,0.052,0.0519,0.0479,0.0473,0.0459,0,0.0454,0,0.0445,0.0422,0.0422,0,0,0,0.0573,0.0543,0.0553,0.0605,0.0584,0.052,0.0546,0.0476,0.047,0.0452,0.0453,0.0449,0.0443,0.0421,0.0421,0.034,0.034,0,0,0.0576,0.0565,0.0557,0.0549,0.0573,0.0548,0.0544,0.0472,0.0452,0.0452,0.0447,0.0442,0.0421,0.042,0.0341,0.034,0,0,0,0.0595,0.0567,0.0577,0.0553,0.0545,0.0546,0.0541,0.0455,0.0466,0.0446,0.0441,0.042,0.042,0.0341,0.0341,0.0345,0,0,0,0.0596,0.058,0.0579,0.0568,0.0547,0.0494,0.0526,0.0471,0.0463,0.0441,0.042,0.0419,0.0341,0.0341,0.0345,0.0398,0,0,0,0.0607,0.058,0.0581,0.0568,0.0549,0.0496,0.0501,0.0469,0.046,0.0422,0.0419,0.0342,0.0341,0.0346,0.0397,0.0391,0,0,0,0.0587,0.0638,0.058,0.0629,0.055,0.0569,0.0501,0.0479,0.0451,0.042,0.0341,0.0341,0.0346,0.0397,0.039,0.0557,0.0572,0,0,0.0662,0.0645,0.0683,0.0633,0.0665,0.0577,0.0564,0.0486,0.043,0.0363,0.0361,0.0345,0.0397,0.0391,0.0515,0.0532,0,0,0,0.0717,0.0722,0.0738,0.0715,0.0708,0.0639,0.0545,0.0497,0.039,0.0411,0.0329,0.0363,0.0358,0.0457,0.0469,0.0337,0.0337,0.0337,0.0337,0.0782,0.0769,0.0789,0.0751,0.0735,0.0652,0.0611,0.0503,0.0428,0.0362,0.0352,0.0339,0.0442,0.0454,0.0308,0.0308,0.0308,0.0308,0.0308,0.0855,0.0852,0.0779,0.0773,0.0691,0.063,0.0576,0.0508,0.0414,0.035,0.0342,0.044,0.0469,0.0308,0.0308,0.0308,0.0308,0.0308,0.0308,0.088,0.0868,0.0819,0.0759,0.0682,0.0612,0.0627,0.055,0.0432,0.0424,0.0483,0.0485,0.0369,0.0369,0.037,0.037,0.037,0.037,0.037,0.0908,0.0872,0.0836,0.0768,0.0741,0.071,0.0649,0.0641,0.0598,0.054,0.054,0.036,0.0358,0.0373,0.0373,0.0373,0.0372,0.0372,0.0372,0.0911,0.0893,0.0904,0.0882,0.0873,0.0956,0.0891,0.0873,0.0806,0.0816,0.0611,0.0604,0.0628,0.062,0.064,0.071,0.071,0.071,0.071,0.0898,0.0899,0.0921,0.0981,0.1083,0.108,0.1166,0.109,0.0948,0.0853,0.0846,0.0857,0.0842,0.0877,0.0862,0.0886,0.102,0.102,0.102,0.0847,0.0896,0.0912,0.0995,0.1159,0.1233,0.1277,0.1157,0.0986,0.1022,0.0796,0.0751,0.075,0.0733,0.077,0.0753,0.0785,0,0]}],[{"header":{"parameterUnit":"m.s-1","parameterCategory":2,"la1":30.2992,"la2":30.254,"lo1":-89.0895,"lo2":-89.0443,"dy":0.0025,"dx":0.0025,"nx":19,"ny":19,"refTime":"2026-05-06T09:00:00:Z","depth":"4","parameterNumber":2,"parameterNumberName":"U-component_of_CURRENTS"},"data":[0,0,0,0.0451,0.0454,0.056,0.0561,0.0737,0.0739,0,0,0,0,0,0,0,0,0,0,0,0.0425,0.0426,0.0451,0.0454,0.056,0.0561,0.0736,0.0739,0,0,0,0,0,0,0,0,0,0,0,0.0424,0.0426,0.0428,0.0454,0.056,0.0561,0.0736,0.0643,0,0,0,0,0,0,0,0,0,0,0.0533,0.0507,0.0425,0.0428,0.0455,0.056,0.0561,0.0638,0.0649,0.0703,0,0.074,0,0.0747,0.0752,0.0753,0,0,0,0.0443,0.0498,0.0529,0.0428,0.0456,0.056,0.0509,0.0644,0.0656,0.0718,0.0743,0.0749,0.075,0.0754,0.0755,0.0943,0.0944,0,0,0.0437,0.0439,0.0521,0.0538,0.0513,0.0506,0.0513,0.0651,0.0676,0.0743,0.0752,0.0753,0.0755,0.0757,0.0943,0.0943,0,0,0,0.0427,0.0436,0.0462,0.0531,0.055,0.0509,0.0517,0.0669,0.068,0.0754,0.0755,0.0756,0.0759,0.0942,0.0943,0.1035,0,0,0,0.0423,0.0431,0.046,0.0461,0.0547,0.0606,0.0533,0.067,0.0686,0.0754,0.0756,0.0761,0.0941,0.0942,0.1031,0.108,0,0,0,0.0415,0.0429,0.045,0.0462,0.0511,0.0603,0.0621,0.0673,0.0687,0.0753,0.0761,0.0941,0.0942,0.1027,0.1074,0.104,0,0,0,0.0399,0.0445,0.0451,0.0518,0.0511,0.0598,0.0619,0.0724,0.079,0.0757,0.0941,0.0943,0.1026,0.107,0.1038,0.0847,0,0,0,0.0439,0.0451,0.049,0.0498,0.057,0.058,0.068,0.0793,0.0818,0.0896,0.09,0.1032,0.1074,0.104,0.0923,0,0,0,0,0.0491,0.0506,0.0538,0.0586,0.0649,0.0727,0.0794,0.0845,0.0959,0.0863,0.1032,0.1055,0.103,0.0912,0.0949,0.0949,0.0949,0.0948,0.0948,0.0511,0.0541,0.0585,0.0633,0.0712,0.0838,0.0919,0.0993,0.1013,0.1086,0.113,0.1171,0.1053,0.1122,0.1123,0.1123,0.1124,0.1124,0.1124,0.0524,0.0543,0.0594,0.0654,0.0766,0.0858,0.1042,0.1109,0.1211,0.1219,0.1188,0.102,0.1133,0.1131,0.113,0.1129,0.1128,0.1128,0.1127,0.0528,0.0529,0.0566,0.0643,0.0757,0.0913,0.1046,0.1222,0.1282,0.1325,0.1126,0.1209,0.1197,0.1287,0.1287,0.1288,0.1288,0.1288,0.1288,0.051,0.0522,0.0548,0.064,0.0707,0.0856,0.1099,0.1161,0.1275,0.121,0.1338,0.1224,0.1219,0.1205,0.1289,0.1289,0.1289,0.1289,0.1289,0.0503,0.0512,0.0529,0.0588,0.0689,0.0772,0.1,0.1082,0.1106,0.1065,0.1108,0.1117,0.1049,0.1048,0.1025,0.1059,0.1057,0.1055,0,0.0505,0.0502,0.0481,0.0514,0.0581,0.073,0.0757,0.0838,0.0933,0.0894,0.1069,0.1115,0.1121,0.1041,0.1036,0.1006,0,0,0,0.0495,0.0482,0.0448,0.0444,0.0522,0.0607,0.0748,0.0765,0.0898,0.0909,0.1,0.1015,0.1167,0.1294,0.121,0.1203,0.1175,0,0]},{"header":{"parameterUnit":"m.s-1","parameterCategory":2,"la1":30.2992,"la2":30.254,"lo1":-89.0895,"lo2":-89.0443,"dy":0.0025,"dx":0.0025,"nx":19,"ny":19,"refTime":"2026-05-06T09:00:00:Z","depth":"4","parameterNumber":3,"parameterNumberName":"V-component_of_CURRENTS"},"data":[0,0,0,0.0609,0.0609,0.0595,0.0595,0.0576,0.0576,0,0,0,0,0,0,0,0,0,0,0,0.0616,0.0617,0.0609,0.0609,0.0595,0.0595,0.0576,0.0576,0,0,0,0,0,0,0,0,0,0,0,0.0616,0.0617,0.0617,0.0609,0.0595,0.0595,0.0576,0.0584,0,0,0,0,0,0,0,0,0,0,0.0596,0.0611,0.0616,0.0617,0.0609,0.0595,0.0595,0.0584,0.0583,0.0586,0,0.0596,0,0.0591,0.0576,0.0576,0,0,0,0.0596,0.0611,0.0607,0.0617,0.0609,0.0595,0.0598,0.0583,0.0583,0.0585,0.0596,0.0595,0.059,0.0576,0.0576,0.0572,0.0572,0,0,0.0596,0.0611,0.0608,0.0607,0.0622,0.0598,0.0597,0.0583,0.059,0.0596,0.0595,0.059,0.0576,0.0576,0.0572,0.0572,0,0,0,0.0607,0.0612,0.0607,0.0608,0.0609,0.0598,0.0597,0.059,0.0589,0.0594,0.059,0.0576,0.0576,0.0572,0.0572,0.0675,0,0,0,0.0607,0.0619,0.0608,0.0616,0.0609,0.06,0.0605,0.059,0.0588,0.059,0.0576,0.0576,0.0572,0.0572,0.0672,0.0736,0,0,0,0.0614,0.0619,0.0622,0.0617,0.0616,0.06,0.0598,0.0589,0.0586,0.0576,0.0576,0.0572,0.0572,0.067,0.0731,0.0683,0,0,0,0.0621,0.0632,0.0623,0.0637,0.0616,0.0622,0.0598,0.0608,0.0606,0.0576,0.0572,0.0572,0.0669,0.0727,0.0681,0.0628,0,0,0,0.0635,0.0634,0.0641,0.0633,0.0661,0.0622,0.0639,0.0632,0.06,0.0575,0.0575,0.0673,0.073,0.0682,0.0623,0,0,0,0,0.0645,0.0666,0.0669,0.0687,0.0676,0.0699,0.067,0.0653,0.0649,0.0599,0.0642,0.0675,0.0641,0.0603,0.0572,0.0572,0.0572,0.0572,0.0572,0.0699,0.0698,0.0716,0.0729,0.075,0.0747,0.0747,0.0716,0.0683,0.0694,0.0735,0.0743,0.0707,0.0696,0.0696,0.0697,0.0697,0.0697,0.0698,0.0722,0.0719,0.0755,0.0793,0.0826,0.0846,0.0842,0.083,0.0803,0.0789,0.0749,0.0688,0.0707,0.0705,0.0704,0.0703,0.0702,0.0701,0.0701,0.0742,0.073,0.0771,0.0828,0.0894,0.0934,0.0956,0.0969,0.0901,0.0902,0.0781,0.0781,0.0795,0.086,0.086,0.086,0.086,0.0861,0.0861,0.0716,0.0734,0.0782,0.0868,0.0934,0.1013,0.1051,0.1017,0.0974,0.089,0.0922,0.0796,0.079,0.08,0.0862,0.0862,0.0862,0.0861,0.0861,0.0714,0.0718,0.0777,0.0859,0.098,0.1021,0.1087,0.1013,0.0944,0.0856,0.0833,0.0834,0.0776,0.077,0.0778,0.0835,0.0834,0.0834,0,0.0704,0.0707,0.0753,0.0849,0.0939,0.103,0.0967,0.093,0.0859,0.0842,0.0899,0.0876,0.0875,0.0811,0.0806,0.0815,0,0,0,0.0699,0.0707,0.0741,0.0812,0.0934,0.0914,0.0937,0.0911,0.0872,0.0829,0.0822,0.0825,0.0874,0.0866,0.0778,0.0771,0.0782,0,0]}]]